Location: *
(49.7115°N, 15.0136°E)
Time: 18:50:32
(UTC+00:00)

STARLINK-21 - Pass Details

Date: 27 February 2020
Orbit: 529 x 530 km, 53.0° (Epoch: 05 April)

Event Time Altitude Azimuth Distance (km) Brightness Sun altitude
Rises 17:26:36 0° 270° (W) 2,668 9.6 -8.6°
Reaches altitude 10° 17:28:51 10° 275° (W) 1,780 7.9 -9.0°
Maximum altitude 17:32:49 54° 353° (N) 651 4.0 -9.6°
Enters shadow 17:36:18 13° 70° (ENE) 1,597 5.4 -10.2°
